一网星座-0132星 (ONEWEB-0132 )

导读 | 豆包AI

ONEWEB-0132是英国OneWeb“一网”低轨卫星星座的组成卫星,于2020年12月18日发射入轨,属于该星座一期部署任务的一员。OneWeb星座旨在打造全球低轨卫星互联网络,为全球偏远及网络基础设施薄弱地区提供普惠高速宽带服务。该卫星运行在近地轨道,通过Ku波段提供用户通信服务,助力OneWeb实现全球覆盖,尤其是高纬度地区网络接入。

基本信息
目录编号:
47278
目录名称:
ONEWEB-0132
国际标识:
2020-100W
轨道中心:
EARTH
卫星名称:
一网星座-0132星
卫星全名:
一网星座-0132星 (ONEWEB-0132 )
卫星状态:
在轨 (已飞行1912 天)
发射日期:
2020-12-18 UTC
国别 :
英国 (GB)
星等 :
--
轨道信息
数据来源 国际轨道数据
星历时间: 2026-03-13T15:24:51+0800
17小时前
查看轨道信息
半长轴: 7591.863km
偏心率: 0.0001782
轨道倾角: 87.900°
近地点辐角 81.594°
升交点赤经 9.708°
平近点角 278.539°
近地点: 1212.373km
远地点: 1215.079km
周期: 109.719分钟
每日圈数: 13.124423
详细信息
平衡模式:
三轴稳定
覆盖范围:
全球
运营商:
一网卫星公司
运营商所在国:
英国
制造商(研发单位):
一网卫星公司
制造商所在国:
英国
使用方式:
暂无
卫星简介
OneWeb卫星网络由648颗重约125公斤的微型卫星组成,运行在1200公里的轨道上。 每颗卫星都能够提供至少每秒8千兆位的吞吐量,以使用其高吞吐量的Ku频段有效载荷为家庭和移动平台提供互联网接入。该卫星仍在工作。
2D轨道图
3D轨道图
轨道高度分析图
轨道倾角分析图
轨道综合分析图
查看轨道综合分析图